Madison, MN

10:49 AM CST on December 09, 2019 (GMT -0600)
Madison-Lac Qui Parle County

Weather History for KDXX - August, 2019

Change the Weather History Date:

Wednesday, August 28, 2019

  Actual Average (KAQP) Record (KAQP)
Temperature  
Mean Temperature 63 °F -  
Max Temperature 73 °F 77 °F 89 °F (2013)
Min Temperature 53 °F 55 °F 48 °F (2004)
Degree Days  
Heating Degree Days 2    
Growing Degree Days 13 (Base 50)    
Moisture  
Dew Point 53 °F    
Average Humidity 70    
Maximum Humidity 94    
Minimum Humidity 46    
Precipitation  
Precipitation 0.00 in - - ()
Sea Level Pressure  
Sea Level Pressure 29.93 in    
Wind  
Wind Speed 9 mph (West)    
Max Wind Speed 22 mph    
Max Gust Speed 26 mph    
Visibility 10 miles    
Events      
Averages and records for this station are not official NWS values.
T = Trace of Precipitation, MM = Missing Value Source: NWS Daily Summary

Daily Weather History Graph

Daily Weather History Graph

Search for Another Location

Airport or City:

Astronomy

Aug. 28, 2019 Rise Set
Actual Time 6:41 AM CDT 8:09 PM CDT
Civil Twilight 6:11 AM CDT 8:39 PM CDT
Nautical Twilight 5:33 AM CDT 9:16 PM CDT
Astronomical Twilight 4:54 AM CDT 9:56 PM CDT
Moon 4:06 AM CDT (8/28) 7:28 PM CDT (8/28)
Length of Visible Light 14h 28m
Length of Day
13h 27m
Waning Crescent, 4% of the Moon is Illuminated
Aug 28
Waning Crescent
Aug 30
New
Sep 5
First Quarter
Sep 13
Full
Sep 21
Last Quarter

Hourly Weather History & Observations

Time (CDT) Temp. Dew Point Humidity Pressure Visibility Wind Dir Wind Speed Gust Speed Precip Events Conditions
12:16 AM 62.6 °F 53.6 °F 72% 29.89 in 10.0 mi West 9.2 mph - N/A   Overcast
12:35 AM 62.6 °F 53.6 °F 72% 29.88 in 10.0 mi West 9.2 mph - N/A   Overcast
12:36 AM 62.6 °F 53.6 °F 72% 29.89 in 10.0 mi West 9.2 mph - N/A   Mostly Cloudy
12:55 AM 62.6 °F 53.6 °F 72% 29.89 in 10.0 mi WNW 10.4 mph - N/A   Mostly Cloudy
12:59 AM 62.6 °F 53.6 °F 72% 29.89 in 10.0 mi WNW 12.7 mph 18.4 mph N/A   Mostly Cloudy
1:17 AM 62.6 °F 53.6 °F 72% 29.89 in 10.0 mi WNW 10.4 mph - N/A   Scattered Clouds
1:36 AM 60.8 °F 53.6 °F 77% 29.89 in 10.0 mi West 9.2 mph - N/A   Clear
1:55 AM 60.8 °F 53.6 °F 77% 29.89 in 10.0 mi West 6.9 mph - N/A   Clear
1:56 AM 60.8 °F 53.6 °F 77% 29.90 in 10.0 mi West 8.1 mph - N/A   Clear
2:15 AM 59.0 °F 53.6 °F 82% 29.90 in 10.0 mi West 6.9 mph - N/A   Clear
2:37 AM 57.2 °F 53.6 °F 88% 29.90 in 10.0 mi West 6.9 mph - N/A   Clear
2:55 AM 57.2 °F 51.8 °F 82% 29.91 in 10.0 mi West 6.9 mph - N/A   Clear
3:16 AM 57.2 °F 51.8 °F 82% 29.91 in 10.0 mi West 8.1 mph - N/A   Clear
3:35 AM 57.2 °F 51.8 °F 82% 29.91 in 10.0 mi West 9.2 mph - N/A   Clear
3:36 AM 57.2 °F 51.8 °F 82% 29.91 in 10.0 mi West 9.2 mph - N/A   Clear
3:59 AM 57.2 °F 51.8 °F 82% 29.91 in 10.0 mi West 6.9 mph - N/A   Clear
4:16 AM 55.4 °F 51.8 °F 88% 29.91 in 10.0 mi West 6.9 mph - N/A   Clear
4:36 AM 55.4 °F 53.6 °F 94% 29.92 in 10.0 mi West 8.1 mph - N/A   Clear
4:55 AM 55.4 °F 53.6 °F 94% 29.92 in 10.0 mi West 8.1 mph - N/A   Clear
5:15 AM 55.4 °F 53.6 °F 94% 29.93 in 10.0 mi West 6.9 mph - N/A   Clear
5:19 AM 55.4 °F 53.6 °F 94% 29.93 in 10.0 mi West 6.9 mph - N/A   Clear
5:38 AM 55.4 °F 53.6 °F 94% 29.93 in 10.0 mi West 8.1 mph - N/A   Clear
5:55 AM 55.4 °F 53.6 °F 94% 29.94 in 10.0 mi West 6.9 mph - N/A   Clear
6:15 AM 55.4 °F 53.6 °F 94% 29.94 in 10.0 mi West 6.9 mph - N/A   Clear
6:16 AM 55.4 °F 53.6 °F 94% 29.94 in 10.0 mi West 6.9 mph - N/A   Clear
6:35 AM 55.4 °F 51.8 °F 88% 29.94 in 10.0 mi West 5.8 mph - N/A   Clear
6:58 AM 53.6 °F 51.8 °F 94% 29.95 in 10.0 mi West 6.9 mph - N/A   Clear
7:16 AM 55.4 °F 53.6 °F 94% 29.95 in 10.0 mi West 8.1 mph - N/A   Clear
7:35 AM 55.4 °F 53.6 °F 94% 29.96 in 10.0 mi West 8.1 mph - N/A   Clear
7:55 AM 57.2 °F 53.6 °F 88% 29.96 in 10.0 mi West 8.1 mph - N/A   Clear
7:56 AM 57.2 °F 53.6 °F 88% 29.96 in 10.0 mi West 8.1 mph - N/A   Clear
8:15 AM 57.2 °F 53.6 °F 88% 29.96 in 10.0 mi West 10.4 mph 16.1 mph N/A   Clear
8:19 AM 57.2 °F 53.6 °F 88% 29.96 in 10.0 mi West 12.7 mph 16.1 mph N/A   Clear
8:38 AM 60.8 °F 53.6 °F 77% 29.96 in 10.0 mi West 11.5 mph - N/A   Clear
8:55 AM 60.8 °F 53.6 °F 77% 29.97 in 10.0 mi West 11.5 mph - N/A   Clear
9:15 AM 62.6 °F 53.6 °F 72% 29.97 in 10.0 mi WNW 10.4 mph 17.3 mph N/A   Clear
9:16 AM 62.6 °F 53.6 °F 72% 29.97 in 10.0 mi WNW 11.5 mph 17.3 mph N/A   Clear
9:35 AM 62.6 °F 51.8 °F 68% 29.97 in 10.0 mi WNW 13.8 mph - N/A   Clear
9:58 AM 64.4 °F 51.8 °F 64% 29.98 in 10.0 mi WNW 11.5 mph - N/A   Clear
10:17 AM 66.2 °F 51.8 °F 60% 29.98 in 10.0 mi WNW 16.1 mph 20.7 mph N/A   Clear
10:36 AM 66.2 °F 51.8 °F 60% 29.99 in 10.0 mi WNW 15.0 mph - N/A   Clear
10:55 AM 66.2 °F 51.8 °F 60% 29.98 in 10.0 mi WNW 13.8 mph 19.6 mph N/A   Clear
10:56 AM 66.2 °F 51.8 °F 60% 29.98 in 10.0 mi WNW 15.0 mph 19.6 mph N/A   Clear
11:15 AM 68.0 °F 50.0 °F 52% 29.98 in 10.0 mi NW 13.8 mph 23.0 mph N/A   Clear
11:37 AM 69.8 °F 50.0 °F 49% 29.99 in 10.0 mi WNW 17.3 mph 24.2 mph N/A   Clear
11:56 AM 69.8 °F 51.8 °F 53% 29.99 in 10.0 mi NW 13.8 mph 19.6 mph N/A   Clear
12:15 PM 69.8 °F 50.0 °F 49% 29.99 in 10.0 mi NW 16.1 mph 20.7 mph N/A   Clear
12:35 PM 71.6 °F 51.8 °F 50% 29.99 in 10.0 mi WNW 16.1 mph 23.0 mph N/A   Clear
12:36 PM 71.6 °F 50.0 °F 46% 29.99 in 10.0 mi WNW 17.3 mph 23.0 mph N/A   Clear
12:59 PM 71.6 °F 51.8 °F 50% 29.98 in 10.0 mi West 12.7 mph 19.6 mph N/A   Clear
1:16 PM 71.6 °F 51.8 °F 50% 29.98 in 10.0 mi NW 12.7 mph 18.4 mph N/A   Scattered Clouds
1:35 PM 71.6 °F 51.8 °F 50% 29.97 in 10.0 mi WNW 19.6 mph 26.5 mph N/A   Scattered Clouds
1:36 PM 71.6 °F 51.8 °F 50% 29.97 in 10.0 mi WNW 21.9 mph 26.5 mph N/A   Scattered Clouds
1:55 PM 71.6 °F 51.8 °F 50% 29.96 in 10.0 mi NW 15.0 mph 24.2 mph N/A   Scattered Clouds
1:56 PM 71.6 °F 51.8 °F 50% 29.96 in 10.0 mi NW 15.0 mph 24.2 mph N/A   Scattered Clouds
2:18 PM 71.6 °F 51.8 °F 50% 29.97 in 10.0 mi WNW 17.3 mph 21.9 mph N/A   Scattered Clouds
2:37 PM 73.4 °F 51.8 °F 47% 29.96 in 10.0 mi WNW 17.3 mph 21.9 mph N/A   Scattered Clouds
2:56 PM 73.4 °F 51.8 °F 47% 29.96 in 10.0 mi West 15.0 mph 20.7 mph N/A   Scattered Clouds
3:15 PM 73.4 °F 51.8 °F 47% 29.96 in 10.0 mi WNW 12.7 mph 21.9 mph N/A   Clear
3:16 PM 73.4 °F 51.8 °F 47% 29.96 in 10.0 mi WNW 12.7 mph 18.4 mph N/A   Clear
3:35 PM 73.4 °F 51.8 °F 47% 29.95 in 10.0 mi West 13.8 mph 20.7 mph N/A   Clear
3:57 PM 71.6 °F 53.6 °F 53% 29.95 in 10.0 mi West 12.7 mph - N/A   Scattered Clouds
4:16 PM 73.4 °F 53.6 °F 50% 29.95 in 10.0 mi West 11.5 mph - N/A   Scattered Clouds
4:35 PM 73.4 °F 53.6 °F 50% 29.94 in 10.0 mi WNW 9.2 mph - N/A   Clear
4:36 PM 73.4 °F 53.6 °F 50% 29.94 in 10.0 mi WNW 10.4 mph - N/A   Clear
4:55 PM 73.4 °F 53.6 °F 50% 29.93 in 10.0 mi WNW 10.4 mph 16.1 mph N/A   Clear
4:56 PM 73.4 °F 53.6 °F 50% 29.93 in 10.0 mi WNW 10.4 mph - N/A   Clear
5:19 PM 73.4 °F 53.6 °F 50% 29.93 in 10.0 mi WNW 6.9 mph - N/A   Clear
5:36 PM 73.4 °F 53.6 °F 50% 29.93 in 10.0 mi West 10.4 mph - N/A   Clear
5:56 PM 73.4 °F 53.6 °F 50% 29.92 in 10.0 mi West 6.9 mph - N/A   Clear
6:15 PM 73.4 °F 53.6 °F 50% 29.92 in 10.0 mi West 4.6 mph - N/A   Clear
6:16 PM 73.4 °F 53.6 °F 50% 29.92 in 10.0 mi West 5.8 mph - N/A   Clear
6:35 PM 73.4 °F 53.6 °F 50% 29.91 in 10.0 mi West 6.9 mph - N/A   Clear
6:39 PM 73.4 °F 53.6 °F 50% 29.91 in 10.0 mi West 6.9 mph - N/A   Clear
6:58 PM 71.6 °F 53.6 °F 53% 29.91 in 10.0 mi West 4.6 mph - N/A   Light Drizzle
7:15 PM 71.6 °F 57.2 °F 60% 29.90 in 10.0 mi West 3.5 mph - N/A   Clear
7:35 PM 69.8 °F 55.4 °F 60% 29.90 in 10.0 mi Calm Calm - N/A   Clear
7:36 PM 69.8 °F 55.4 °F 60% 29.90 in 10.0 mi Calm Calm - N/A   Clear
7:55 PM 69.8 °F 57.2 °F 64% 29.89 in 10.0 mi SW 3.5 mph - N/A   Clear
8:18 PM 66.2 °F 55.4 °F 68% 29.89 in 10.0 mi SW 4.6 mph - N/A   Clear
8:37 PM 64.4 °F 55.4 °F 73% 29.90 in 10.0 mi Calm Calm - N/A   Clear
8:56 PM 62.6 °F 57.2 °F 82% 29.90 in 10.0 mi SSW 3.5 mph - N/A   Clear
9:15 PM 62.6 °F 57.2 °F 82% 29.90 in 10.0 mi SSW 5.8 mph - N/A   Clear
9:16 PM 62.6 °F 57.2 °F 82% 29.90 in 10.0 mi SSW 5.8 mph - N/A   Clear
9:35 PM 64.4 °F 55.4 °F 73% 29.90 in 10.0 mi SSW 4.6 mph - N/A   Clear
9:57 PM 60.8 °F 55.4 °F 82% 29.89 in 10.0 mi SSW 3.5 mph - N/A   Clear
10:16 PM 60.8 °F 55.4 °F 82% 29.90 in 10.0 mi SSW 4.6 mph - N/A   Clear
10:35 PM 59.0 °F 55.4 °F 88% 29.89 in 10.0 mi SSW 3.5 mph - N/A   Clear
10:36 PM 59.0 °F 55.4 °F 88% 29.89 in 10.0 mi SSW 4.6 mph - N/A   Clear
10:55 PM 57.2 °F 53.6 °F 88% 29.89 in 10.0 mi SSW 4.6 mph - N/A   Clear
10:56 PM 59.0 °F 53.6 °F 82% 29.89 in 10.0 mi SSW 4.6 mph - N/A   Clear
11:19 PM 57.2 °F 53.6 °F 88% 29.88 in 10.0 mi South 4.6 mph - N/A   Clear
11:36 PM 57.2 °F 53.6 °F 88% 29.87 in 10.0 mi South 5.8 mph - N/A   Clear
11:56 PM 57.2 °F 53.6 °F 88% 29.87 in 10.0 mi South 5.8 mph - N/A   Clear